Nome, AK

3:56 AM AKDT on May 24, 2017 (GMT -0800)
Nome

Weather History for PAOM - May, 2015

Change the Weather History Date:

Tuesday, May 26, 2015

  Actual Average Record
Temperature  
Mean Temperature 47 °F 41 °F  
Max Temperature 57 °F 48 °F 72 °F (1997)
Min Temperature 36 °F 34 °F 19 °F (1952)
Degree Days  
Heating Degree Days 18 24  
Month to date heating degree days 670 760  
Since 1 July heating degree days 11941 13073  
Cooling Degree Days 0    
Month to date cooling degree days 0  
Year to date cooling degree days 0  
Moisture  
Dew Point 40 °F    
Average Humidity 0    
Maximum Humidity 0    
Minimum Humidity 0    
Precipitation  
Precipitation 0.00 in 0.03 in 0.22 in (1950)
Month to date precipitation 1.40 0.72  
Year to date precipitation 4.35 4.00  
Snow  
Snow 0.00 in 0.00 in 1.20 in (1984)
Month to date snowfall T 2.1  
Since 1 July snowfall 59.7 75.2  
Snow Depth 0.00 in    
Sea Level Pressure  
Sea Level Pressure 30.07 in    
Wind  
Wind Speed 7 mph (SE)    
Max Wind Speed 16 mph    
Max Gust Speed 19 mph    
Visibility 10 miles    
Events      
T = Trace of Precipitation, MM = Missing Value Source: NWS Daily Summary

Daily Weather History Graph

Daily Weather History Graph

Search for Another Location

Airport or City:

Trip Planner

Search our weather history database for the weather conditions in past years. The results will help you decide how hot, cold, wet, or windy it might be!

Date:

Astronomy

May. 26, 2015 Rise Set
Actual Time 5:07 AM AKDT 12:52 AM AKDT
Civil Twilight 3:31 AM AKDT 2:26 AM AKDT
Nautical Twilight Sun does not set Sun does not set
Astronomical Twilight Sun does not set Sun does not set
Moon 3:40 PM AKDT (5/26) 4:19 AM AKDT (5/26)
Length of Visible Light 22h 55m
Length of Day
19h 45m
First Quarter, 60% of the Moon is Illuminated
May 26
First Quarter
Jun 2
Full
Jun 9
Last Quarter
Jun 16
New
Jun 24
First Quarter

Hourly Weather History & Observations

Time (AKDT) Temp. Windchill Dew Point Humidity Pressure Visibility Wind Dir Wind Speed Gust Speed Precip Events Conditions
12:53 AM 45.0 °F 41.2 °F 39.0 °F 80% 30.09 in 10.0 mi NNE 6.9 mph - N/A   Partly Cloudy
1:53 AM 43.0 °F - 37.9 °F 82% 30.10 in 10.0 mi Calm Calm - N/A   Clear
2:53 AM 37.9 °F 33.5 °F 36.0 °F 93% 30.09 in 10.0 mi North 5.8 mph - N/A   Clear
3:53 AM 37.9 °F - 37.0 °F 97% 30.10 in 10.0 mi Calm Calm - N/A   Partly Cloudy
4:53 AM 37.0 °F 33.3 °F 36.0 °F 96% 30.10 in 10.0 mi North 4.6 mph - N/A   Partly Cloudy
5:53 AM 36.0 °F - 35.1 °F 97% 30.10 in 10.0 mi Calm Calm - N/A   Partly Cloudy
6:53 AM 39.9 °F 37.8 °F 37.0 °F 89% 30.10 in 10.0 mi North 3.5 mph - N/A   Partly Cloudy
7:53 AM 44.1 °F - 39.9 °F 85% 30.11 in 10.0 mi Calm Calm - N/A   Partly Cloudy
8:53 AM 48.9 °F - 42.1 °F 77% 30.07 in 10.0 mi Calm Calm - N/A   Partly Cloudy
9:53 AM 50.0 °F - 43.0 °F 77% 30.06 in 10.0 mi SSW 3.5 mph - N/A   Partly Cloudy
10:53 AM 52.0 °F - 42.1 °F 69% 30.06 in 10.0 mi SSE 5.8 mph - N/A   Partly Cloudy
11:53 AM 53.1 °F - 41.0 °F 64% 30.08 in 10.0 mi South 8.1 mph - N/A   Partly Cloudy
12:53 PM 52.0 °F - 42.1 °F 69% 30.09 in 10.0 mi SE 13.8 mph - N/A   Partly Cloudy
1:53 PM 51.1 °F - 42.1 °F 71% 30.08 in 10.0 mi SE 11.5 mph - N/A   Partly Cloudy
2:53 PM 51.1 °F - 41.0 °F 68% 30.08 in 10.0 mi SE 15.0 mph - N/A   Partly Cloudy
3:53 PM 54.0 °F - 39.9 °F 59% 30.07 in 10.0 mi SSE 8.1 mph - N/A   Partly Cloudy
4:53 PM 51.1 °F - 42.1 °F 71% 30.06 in 10.0 mi SSE 9.2 mph - N/A   Partly Cloudy
5:53 PM 53.1 °F - 41.0 °F 64% 30.05 in 10.0 mi SSE 5.8 mph - N/A   Partly Cloudy
6:53 PM 55.0 °F - 41.0 °F 59% 30.05 in 10.0 mi SE 9.2 mph - N/A   Scattered Clouds
7:53 PM 55.0 °F - 42.1 °F 62% 30.03 in 10.0 mi SSE 9.2 mph - N/A   Scattered Clouds
8:53 PM 55.0 °F - 43.0 °F 64% 30.02 in 10.0 mi SE 9.2 mph - N/A   Scattered Clouds
9:53 PM 51.1 °F - 43.0 °F 74% 30.01 in 10.0 mi SE 12.7 mph - N/A   Scattered Clouds
10:53 PM 50.0 °F - 43.0 °F 77% 30.02 in 10.0 mi ESE 10.4 mph - N/A   Mostly Cloudy
11:53 PM 48.9 °F - 43.0 °F 80% 30.03 in 10.0 mi ESE 6.9 mph - N/A   Mostly Cloudy